DW1024 Weather Reports


time (UTC)temp
C
wind
direction
speed
KPH
gust
KPH
rain 1hr
cm
rain 24hr
cm
rain mn
cm
humidity
%
barometer
mb
20260509215211 11 64 0.0 0.0 0.00 0.00 0.00 72 1015.6
20260509212207 12 64 0.0 0.0 0.00 0.00 0.00 68 1015.6
20260509210709 13 64 0.0 0.0 0.00 0.00 0.00 66 1015.7
20260509205207 14 64 0.0 0.0 0.00 0.00 0.00 64 1015.8
20260509203709 14 64 0.0 0.0 0.00 0.00 0.00 63 1015.9
20260509202207 15 64 0.0 0.0 0.00 0.00 0.00 62 1015.8
20260509200709 15 64 0.0 6.4 0.00 0.00 0.00 61 1015.9
20260509193706 16 49 0.0 4.8 0.00 0.00 0.00 59 1016.1
20260509192209 16 52 1.6 6.4 0.00 0.00 0.00 58 1016.1
20260509190702 17 84 1.6 9.7 0.00 0.00 0.00 56 1016.1
20260509183703 18 39 1.6 6.4 0.00 0.00 0.00 54 1015.8
20260509182207 18 314 3.2 9.7 0.00 0.00 0.00 53 1015.6
20260509180702 18 28 1.6 8.0 0.00 0.00 0.00 52 1015.5
20260509175203 19 92 3.2 8.0 0.00 0.00 0.00 51 1015.6
20260509173712 20 284 3.2 8.0 0.00 0.00 0.00 50 1015.5
20260509172203 20 40 1.6 12.9 0.00 0.00 0.00 50 1015.6
20260509170707 20 288 1.6 9.7 0.00 0.00 0.00 50 1015.5
20260509165201 20 103 3.2 12.9 0.00 0.00 0.00 49 1015.5
20260509163701 21 36 1.6 12.9 0.00 0.00 0.00 50 1015.5
20260509162203 21 265 4.8 16.1 0.00 0.00 0.00 49 1015.6
20260509160701 21 48 8.0 17.7 0.00 0.00 0.00 47 1015.7
20260509155203 22 53 3.2 19.3 0.00 0.00 0.00 46 1015.9
20260509153701 21 207 3.2 8.0 0.00 0.00 0.00 49 1016.2
20260509152203 21 43 4.8 14.5 0.00 0.00 0.00 48 1016.1
20260509150701 21 37 6.4 17.7 0.00 0.00 0.00 49 1016.3
20260509145203 21 187 4.8 12.9 0.00 0.00 0.00 48 1016.3
20260509143701 21 105 8.0 17.7 0.00 0.00 0.00 47 1016.2
20260509142200 22 76 4.8 17.7 0.00 0.00 0.00 46 1016.4
20260509140700 23 21 6.4 19.3 0.00 0.00 0.00 45 1016.4
20260509135207 23 5 3.2 14.5 0.00 0.00 0.00 43 1016.6
20260509133704 23 69 4.8 12.9 0.00 0.00 0.00 44 1016.7
20260509130702 22 76 3.2 14.5 0.00 0.00 0.00 47 1016.9
20260509123702 22 60 4.8 14.5 0.00 0.00 0.00 46 1017.1
20260509122205 23 147 3.2 9.7 0.00 0.00 0.00 45 1017.2
20260509120702 23 35 3.2 9.7 0.00 0.00 0.00 43 1017.3
20260509115201 22 240 3.2 12.9 0.00 0.00 0.00 47 1017.6
20260509113701 22 217 4.8 12.9 0.00 0.00 0.00 44 1017.7
20260509112202 22 215 3.2 11.3 0.00 0.00 0.00 47 1017.7
20260509110701 22 234 3.2 12.9 0.00 0.00 0.00 46 1017.9
20260509105203 21 140 3.2 12.9 0.00 0.00 0.00 52 1018.1
20260509103658 20 19 6.4 17.7 0.00 0.00 0.00 53 1018.2
20260509102158 21 65 6.4 16.1 0.00 0.00 0.00 52 1018.4
20260509100657 21 27 3.2 11.3 0.00 0.00 0.00 53 1018.5
20260509095158 20 248 3.2 11.3 0.00 0.00 0.00 54 1018.5
20260509093655 20 192 3.2 9.7 0.00 0.00 0.00 57 1018.4
20260509092156 19 44 3.2 16.1 0.00 0.00 0.00 61 1018.4
20260509090657 19 46 1.6 14.5 0.00 0.00 0.00 63 1018.4
20260509083653 18 35 3.2 8.0 0.00 0.00 0.00 66 1018.5
20260509075154 13 84 0.0 4.8 0.00 0.00 0.00 82 1018.7
20260509073653 12 213 0.0 1.6 0.00 0.00 0.00 83 1018.9
20260509072506 12 213 0.0 1.6 0.00 0.00 0.00 83 1018.9
20260509071839 12 213 1.6 4.8 0.00 0.00 0.00 82 1018.9
20260509065153 12 194 1.6 4.8 0.00 0.00 0.00 84 1018.7
20260509063650 11 167 0.0 3.2 0.00 0.00 0.00 85 1018.6
20260509062149 11 219 0.0 1.6 0.00 0.00 0.00 85 1018.8
20260509055142 10 229 0.0 3.2 0.00 0.00 0.00 85 1019.0
20260509052142 10 209 0.0 0.0 0.00 0.00 0.00 88 1018.8
20260509045144 8 250 0.0 0.0 0.00 0.00 0.00 91 1018.4
20260509043640 7 250 0.0 0.0 0.00 0.00 0.00 90 1018.4
20260509042141 7 170 0.0 0.0 0.00 0.00 0.00 90 1018.2
20260509040640 7 170 0.0 0.0 0.00 0.00 0.00 89 1017.8
20260509035139 7 170 0.0 0.0 0.00 0.00 0.00 89 1017.7
20260509033643 6 126 0.0 1.6 0.00 0.00 0.00 89 1017.7
20260509032139 6 46 0.0 1.6 0.00 0.00 0.00 88 1017.7
20260509030639 6 46 0.0 0.0 0.00 0.00 0.00 86 1017.8
20260509025140 6 46 0.0 0.0 0.00 0.00 0.00 86 1017.6
20260509023634 6 46 0.0 0.0 0.00 0.00 0.00 86 1017.7
20260509022134 7 46 0.0 0.0 0.00 0.00 0.00 85 1017.6
20260509020635 7 46 0.0 0.0 0.00 0.00 0.00 85 1017.5
20260509015133 7 46 0.0 0.0 0.00 0.00 0.00 85 1017.3
20260509013633 7 46 0.0 0.0 0.00 0.00 0.00 84 1017.2
20260509010630 7 46 0.0 0.0 0.00 0.00 0.00 83 1017.4
20260509005129 8 46 0.0 0.0 0.00 0.00 0.00 83 1017.5
20260509003634 8 46 0.0 0.0 0.00 0.00 0.00 83 1017.5
20260509002128 8 46 0.0 0.0 0.00 0.00 0.00 83 1017.5
20260508235129 8 46 0.0 1.6 0.00 0.00 0.00 81 1017.5
20260508232131 9 46 0.0 0.0 0.00 0.00 0.00 79 1017.7
20260508230631 10 46 0.0 0.0 0.00 0.00 0.00 78 1017.8
20260508223631 11 46 0.0 0.0 0.00 0.00 0.00 75 1017.7
20260508220631 12 46 0.0 0.0 0.00 0.00 0.00 72 1017.8